Palestine, IL

10:57 PM CST on February 24, 2017 (GMT -0600)
Robinson Municipal

Weather History for KRSV - December, 2013

Change the Weather History Date:

Tuesday, December 10, 2013

  Actual Average (KLWV) Record (KLWV)
Temperature  
Mean Temperature 19 °F -  
Max Temperature 29 °F 42 °F 61 °F (1996)
Min Temperature 9 °F 28 °F 3 °F (2005)
Degree Days  
Heating Degree Days 46    
Moisture  
Dew Point 14 °F    
Average Humidity 81    
Maximum Humidity 96    
Minimum Humidity 59    
Precipitation  
Precipitation 0.00 in - - ()
Sea Level Pressure  
Sea Level Pressure 30.29 in    
Wind  
Wind Speed 6 mph (WSW)    
Max Wind Speed 20 mph    
Max Gust Speed 25 mph    
Visibility 9 miles    
Events Snow    
Averages and records for this station are not official NWS values.
T = Trace of Precipitation, MM = Missing Value Source: NWS Daily Summary

Daily Weather History Graph

Daily Weather History Graph

Search for Another Location

Airport or City:

Trip Planner

Search our weather history database for the weather conditions in past years. The results will help you decide how hot, cold, wet, or windy it might be!

Date:

Astronomy

Dec. 10, 2013 Rise Set
Actual Time 6:58 AM CST 4:28 PM CST
Civil Twilight 6:28 AM CST 4:58 PM CST
Nautical Twilight 5:55 AM CST 5:31 PM CST
Astronomical Twilight 5:23 AM CST 6:03 PM CST
Moon 12:26 PM CST (12/10) 12:19 AM CST (12/10)
Length of Visible Light 10h 29m
Length of Day
9h 29m
Waxing Gibbous, 62% of the Moon is Illuminated
Dec 10
Waxing Gibbous
Dec 17
Full
Dec 25
Last Quarter
Jan 1
New
Jan 7
First Quarter

Hourly Weather History & Observations

Time (CST) Temp. Windchill Dew Point Humidity Pressure Visibility Wind Dir Wind Speed Gust Speed Precip Events Conditions
12:15 AM 23.9 °F 16.8 °F 21.6 °F 91% 30.27 in 2.0 mi WNW 5.8 mph - N/A Snow Light Snow
12:35 AM 23.0 °F 15.8 °F 20.7 °F 91% 30.27 in 3.0 mi NW 5.8 mph - N/A Snow Light Snow
12:55 AM 22.8 °F 16.7 °F 20.3 °F 90% 30.26 in 4.0 mi NW 4.6 mph - N/A Snow Light Snow
1:15 AM 22.8 °F 16.7 °F 20.1 °F 89% 30.26 in 4.0 mi NNW 4.6 mph - N/A Snow Light Snow
1:35 AM 22.6 °F 18.0 °F 20.1 °F 90% 30.25 in 3.0 mi NNW 3.5 mph - N/A Snow Light Snow
2:00 AM 22.3 °F 16.1 °F 20.1 °F 91% 30.25 in 3.0 mi NNW 4.6 mph - N/A Snow Light Snow
2:15 AM 22.1 °F 17.4 °F 20.1 °F 92% 30.25 in 5.0 mi NNW 3.5 mph - N/A Snow Light Snow
2:35 AM 22.1 °F 15.9 °F 19.9 °F 91% 30.25 in 10.0 mi NNW 4.6 mph - N/A   Overcast
2:55 AM 21.7 °F 14.3 °F 19.0 °F 89% 30.26 in 10.0 mi NNW 5.8 mph - N/A   Overcast
3:15 AM 21.6 °F 14.0 °F 18.3 °F 87% 30.26 in 10.0 mi NNW 5.8 mph - N/A   Overcast
3:35 AM 21.2 °F 13.6 °F 17.6 °F 86% 30.25 in 10.0 mi NNW 5.8 mph - N/A   Overcast
3:55 AM 21.2 °F - 17.2 °F 85% 30.24 in 10.0 mi Calm Calm - N/A   Overcast
4:15 AM 21.0 °F - 17.2 °F 85% 30.25 in 10.0 mi Calm Calm - N/A   Overcast
4:40 AM 20.3 °F 15.4 °F 16.7 °F 86% 30.25 in 10.0 mi NW 3.5 mph - N/A   Mostly Cloudy
4:55 AM 18.7 °F 13.5 °F 15.6 °F 88% 30.26 in 10.0 mi NW 3.5 mph - N/A   Scattered Clouds
5:15 AM 17.1 °F 11.7 °F 14.5 °F 90% 30.27 in 10.0 mi WNW 3.5 mph - N/A   Clear
5:35 AM 14.5 °F 8.8 °F 13.3 °F 95% 30.27 in 7.0 mi WNW 3.5 mph - N/A   Clear
5:55 AM 13.5 °F 7.5 °F 12.4 °F 95% 30.28 in 5.0 mi West 3.5 mph - N/A   Clear
6:15 AM 11.1 °F 4.9 °F 9.7 °F 94% 30.28 in 4.0 mi SSW 3.5 mph - N/A   Clear
6:35 AM 11.3 °F 1.9 °F 9.1 °F 91% 30.27 in 7.0 mi SSW 5.8 mph - N/A   Clear
6:55 AM 9.7 °F -0.1 °F 8.4 °F 95% 30.29 in 7.0 mi WSW 5.8 mph - N/A   Clear
7:15 AM 12.7 °F 5.0 °F 11.8 °F 96% 30.29 in 5.0 mi SW 4.6 mph - N/A   Clear
7:35 AM 9.3 °F -0.5 °F 7.5 °F 92% 30.29 in 3.0 mi South 5.8 mph - N/A   Clear
7:55 AM 9.7 °F -0.1 °F 7.9 °F 92% 30.29 in 4.0 mi SSW 5.8 mph - N/A   Clear
8:15 AM 13.6 °F 4.6 °F 12.7 °F 96% 30.28 in 7.0 mi SSW 5.8 mph - N/A   Clear
8:35 AM 16.7 °F 7.2 °F 15.6 °F 96% 30.27 in 7.0 mi SSW 6.9 mph - N/A   Clear
8:55 AM 18.3 °F 10.2 °F 17.2 °F 96% 30.28 in 10.0 mi SW 5.8 mph - N/A   Clear
9:15 AM 20.7 °F 9.5 °F 17.4 °F 87% 30.29 in 10.0 mi SW 10.4 mph - N/A   Clear
9:35 AM 22.1 °F 9.5 °F 16.7 °F 80% 30.30 in 10.0 mi SW 13.8 mph - N/A   Clear
9:55 AM 22.6 °F 8.7 °F 17.1 °F 79% 30.29 in 7.0 mi SW 17.3 mph 21.9 mph N/A   Clear
10:15 AM 23.2 °F 11.4 °F 16.7 °F 76% 30.28 in 10.0 mi SW 12.7 mph - N/A   Clear
10:35 AM 24.1 °F 10.1 °F 16.2 °F 72% 30.27 in 10.0 mi SW 18.4 mph - N/A   Clear
10:55 AM 24.8 °F 12.4 °F 15.4 °F 68% 30.28 in 10.0 mi SW 15.0 mph - N/A   Clear
11:15 AM 24.8 °F 11.5 °F 15.4 °F 68% 30.27 in 10.0 mi SW 17.3 mph - N/A   Clear
11:35 AM 25.7 °F 14.0 °F 16.0 °F 67% 30.27 in 10.0 mi SW 13.8 mph 18.4 mph N/A   Clear
11:55 AM 26.2 °F 14.7 °F 16.2 °F 66% 30.26 in 10.0 mi SW 13.8 mph - N/A   Clear
12:15 PM 27.1 °F 15.4 °F 15.6 °F 62% 30.26 in 10.0 mi WSW 15.0 mph - N/A   Clear
12:35 PM 27.5 °F 14.2 °F 15.1 °F 60% 30.26 in 10.0 mi WSW 19.6 mph 25.3 mph N/A   Clear
12:55 PM 28.0 °F 17.5 °F 16.3 °F 62% 30.25 in 10.0 mi WSW 12.7 mph - N/A   Clear
1:15 PM 28.2 °F 17.7 °F 16.7 °F 62% 30.26 in 10.0 mi WSW 12.7 mph 18.4 mph N/A   Clear
1:35 PM 28.4 °F 18.0 °F 16.3 °F 61% 30.27 in 10.0 mi WSW 12.7 mph 17.3 mph N/A   Clear
1:55 PM 28.9 °F 19.2 °F 16.7 °F 60% 30.26 in 10.0 mi WSW 11.5 mph 17.3 mph N/A   Clear
2:15 PM 29.3 °F 18.6 °F 16.5 °F 59% 30.27 in 10.0 mi WSW 13.8 mph - N/A   Clear
2:35 PM 29.3 °F 19.6 °F 16.5 °F 59% 30.27 in 10.0 mi West 11.5 mph - N/A   Clear
2:55 PM 29.1 °F 19.4 °F 16.5 °F 59% 30.27 in 10.0 mi WSW 11.5 mph - N/A   Clear
3:15 PM 28.8 °F 19.0 °F 16.7 °F 61% 30.28 in 10.0 mi WSW 11.5 mph - N/A   Clear
3:35 PM 28.4 °F 19.7 °F 16.7 °F 62% 30.30 in 10.0 mi SW 9.2 mph - N/A   Clear
3:55 PM 27.9 °F 18.4 °F 16.7 °F 63% 30.30 in 10.0 mi WSW 10.4 mph - N/A   Clear
4:15 PM 26.2 °F 17.1 °F 16.5 °F 67% 30.31 in 10.0 mi WSW 9.2 mph - N/A   Clear
4:35 PM 25.2 °F 15.7 °F 15.8 °F 68% 30.31 in 10.0 mi SW 9.2 mph - N/A   Clear
4:55 PM 22.5 °F 15.1 °F 14.7 °F 72% 30.30 in 10.0 mi SSW 5.8 mph - N/A   Clear
5:15 PM 19.9 °F 12.1 °F 13.3 °F 75% 30.30 in 10.0 mi SSW 5.8 mph - N/A   Clear
5:35 PM 18.5 °F 10.4 °F 12.6 °F 78% 30.29 in 10.0 mi SSW 5.8 mph - N/A   Clear
5:55 PM 16.5 °F - 11.1 °F 79% 30.28 in 10.0 mi Calm Calm - N/A   Clear
6:15 PM 18.3 °F - 13.5 °F 81% 30.29 in 10.0 mi Calm Calm - N/A   Clear
6:35 PM 15.6 °F - 11.7 °F 84% 30.31 in 10.0 mi Calm Calm - N/A   Clear
6:55 PM 16.2 °F - 12.2 °F 84% 30.31 in 10.0 mi Calm Calm - N/A   Clear
7:15 PM 16.2 °F - 11.8 °F 83% 30.31 in 10.0 mi Calm Calm - N/A   Clear
7:35 PM 16.3 °F - 12.4 °F 84% 30.31 in 10.0 mi Calm Calm - N/A   Clear
8:00 PM 17.8 °F - 13.6 °F 84% 30.33 in 10.0 mi Calm Calm - N/A   Clear
8:15 PM 16.5 °F 11.0 °F 12.7 °F 85% 30.33 in 10.0 mi SSW 3.5 mph - N/A   Clear
8:35 PM 14.2 °F - 9.7 °F 82% 30.34 in 10.0 mi Calm Calm - N/A   Clear
8:55 PM 13.5 °F - 11.1 °F 90% 30.35 in 10.0 mi Calm Calm - N/A   Clear
9:15 PM 12.0 °F 4.1 °F 9.7 °F 90% 30.36 in 10.0 mi SW 4.6 mph - N/A   Clear
9:35 PM 11.5 °F - 9.5 °F 92% 30.37 in 10.0 mi Calm Calm - N/A   Clear
9:55 PM 10.9 °F - 8.2 °F 89% 30.37 in 10.0 mi Calm Calm - N/A   Clear
10:15 PM 10.6 °F - 7.5 °F 87% 30.37 in 10.0 mi Calm Calm - N/A   Clear
10:35 PM 9.1 °F - 7.0 °F 91% 30.37 in 10.0 mi Calm Calm - N/A   Clear
10:55 PM 11.1 °F - 9.3 °F 92% 30.37 in 10.0 mi Calm Calm - N/A   Clear
11:15 PM 10.0 °F - 8.1 °F 92% 30.38 in 10.0 mi Calm Calm - N/A   Clear
11:35 PM 11.1 °F - 8.8 °F 90% 30.38 in 10.0 mi Calm Calm - N/A   Clear
11:55 PM 9.3 °F -0.5 °F 7.7 °F 93% 30.37 in 10.0 mi SSE 5.8 mph - N/A   Clear